This is the latest recevied weather packets stored in our database for station/object KC5EZZ-2. If no packets are shown the sender has not sent any weather packets the latest 10 day(s).
| Time | Temp. | Humidity | Pressure | Rain* | Wind** | Luminosity | Snow |
|---|---|---|---|---|---|---|---|
| 1778130795 | 15.56° C | - | - | 0 mm | 3.13 m/s, 30° | - | - |
| 1778130495 | 15.56° C | - | - | 0 mm | 3.58 m/s, 44° | - | - |
| 1778130193 | 15.56° C | - | - | 0 mm | 3.58 m/s, 27° | - | - |
| 1778129893 | 15.56° C | - | - | 0 mm | 4.02 m/s, 49° | - | - |
| 1778129594 | 15.56° C | - | - | 0 mm | 4.02 m/s, 37° | - | - |
| 1778129291 | 15.56° C | - | - | 0 mm | 3.13 m/s, 31° | - | - |
| 1778128992 | 16.11° C | - | - | 0 mm | 3.13 m/s, 48° | - | - |
| 1778128692 | 16.11° C | - | - | 0 mm | 4.47 m/s, 65° | - | - |
| 1778128390 | 16.11° C | - | - | 0 mm | 4.92 m/s, 65° | - | - |
| 1778128090 | 16.11° C | - | - | 0 mm | 4.02 m/s, 21° | - | - |
| 1778127791 | 16.11° C | - | - | 0 mm | 4.47 m/s, 14° | - | - |
| 1778127488 | 16.11° C | - | - | 0 mm | 3.58 m/s, 44° | - | - |
| 1778127189 | 16.67° C | - | - | 0 mm | 3.13 m/s, 28° | - | - |
| 1778126891 | 16.67° C | - | - | 0 mm | 3.13 m/s, 45° | - | - |
| 1778126587 | 16.67° C | - | - | 0 mm | 2.24 m/s, 52° | - | - |
| 1778126287 | 16.67° C | - | - | 0 mm | 2.24 m/s, 42° | - | - |
| 1778125988 | 17.22° C | - | - | 0 mm | 2.68 m/s, 42° | - | - |
| 1778125686 | 17.22° C | - | - | 0 mm | 3.13 m/s, 52° | - | - |
| 1778125386 | 17.22° C | - | - | 0 mm | 3.58 m/s, 44° | - | - |
| 1778124784 | 17.22° C | - | - | 0 mm | 2.68 m/s, 89° | - | - |
| 1778124485 | 17.22° C | - | - | 0 mm | 3.13 m/s, 70° | - | - |
| 1778124185 | 17.78° C | - | - | 0 mm | 2.24 m/s, 62° | - | - |
| 1778123883 | 17.78° C | - | - | 0 mm | 1.34 m/s, 49° | - | - |
| 1778123583 | 17.78° C | - | - | 0 mm | 2.68 m/s, 53° | - | - |
| 1778123284 | 17.78° C | - | - | 0 mm | 3.13 m/s, 35° | - | - |
* Rain latest hour (hover to see other rain measurements)
** Current wind speed in m/s (hover to see current wind gust speed)